Flag for Switzerland Weather past 2 weeks in Sarnen, Obwalden, Switzerland

Now
63 °F

Mild.


Feels Like: 63 °F
Forecast: 49 / 69 °F
Wind: 1 mph from Northeast

Location: Giswil

Current Time: Apr 25, 2015 at 2:47:06 PM

Latest Report: Apr 25, 2015 at 2:00 PM


Visibility: N/A

Pressure: 29.88 "Hg

Humidity: 52%

Dew point: 45 °F

Location of SarnenLocation

Historic Weather in Sarnen — Graph

°F

Sarnen temperature yesterday

Maximum temperature yesterday: 69 °F (at 4:00 PM)
Minimum temperature yesterday: 35 °F (at 7:00 AM)
Average temperature yesterday: 53 °F

Past Weeks' High & Low Weather Summary

 TemperatureHumidityPressure
High73 °F (Apr 15, 5:00 PM)100% (Apr 18, 2:00 AM)30.53 "Hg (Apr 18, 2:00 AM)
Low32 °F (Apr 21, 5:00 AM)24% (Apr 22, 6:00 PM)29.86 "Hg (Apr 24, 7:00 PM)
Average51 °F72%30.19 "Hg
* Reported Apr 10 1:00 PM — Apr 25 1:00 PM, Sarnen, Weather by CustomWeather, © 2015

Note: Actual official high and low records may vary slightly from our data, if they occured in-between our weather recording intervals... More about our weather records

Advertising

Sarnen weather history for previous 24 hours

 ConditionsComfort  
Time TempWeatherWind HumidityBarometerVisibility
1:00 PM
Sat, Apr 25
63 °FMild.3 mph49%29.88 "HgN/A
12:00 PM62 °FRefreshingly cool.1 mph50%29.89 "HgN/A
11:00 AM59 °FRefreshingly cool.1 mph53%29.91 "HgN/A
10:00 AM57 °FCool.1 mph62%29.91 "HgN/A
9:00 AM54 °FCool.No wind79%29.93 "HgN/A
8:00 AM50 °FCool.3 mph87%29.95 "HgN/A
7:00 AM46 °FCool.1 mph89%29.94 "HgN/A
6:00 AM43 °FQuite cool.1 mph93%29.94 "HgN/A
5:00 AM41 °FQuite cool.1 mph94%29.94 "HgN/A
4:00 AM41 °FQuite cool.1 mph93%29.95 "HgN/A
3:00 AM42 °FQuite cool.1 mph92%29.96 "HgN/A
2:00 AM40 °FQuite cool.2 mph94%29.98 "HgN/A
1:00 AM44 °FQuite cool.1 mph89%29.97 "HgN/A
12:00 AM44 °FQuite cool.1 mph89%29.97 "HgN/A
11:00 PM
Fri, Apr 24
47 °FCool.1 mph82%29.96 "HgN/A
10:00 PM49 °FCool.3 mph80%29.95 "HgN/A
9:00 PM56 °FCool.5 mph66%29.92 "HgN/A
8:00 PM62 °FRefreshingly cool.1 mph56%29.88 "HgN/A
7:00 PM67 °FMild.3 mph43%29.86 "HgN/A
6:00 PM68 °FMild.6 mph43%29.86 "HgN/A
4:00 PM69 °FMild.5 mph41%29.88 "HgN/A
3:00 PM69 °FMild.5 mph37%29.90 "HgN/A
2:00 PM68 °FMild.3 mph41%29.92 "HgN/A
Weather by CustomWeather, © 2015

See weather overviewHow to use our weather pages